,,,PA_Meas_PMT16A,,PR_Meas_QMR101_102,,RH_Meas_QMH101,,SR_Meas_QMS101,,TA_Meas_QMH101,,GenWind,,GenWind,
date,time,status,PA,status,PR,status,RH,status,SR,status,TA,status,DirAvg,status,SpdAvg,
2010-09-28, 00:00:04,VALID,1010.95,VALID,0,VALID,103.39,VALID,0,VALID,24.2007,VALID,154,VALID,0.737891,
2010-09-28, 00:01:04,VALID,1010.92,VALID,0,VALID,103.398,VALID,0,VALID,24.2202,VALID,146,VALID,0.589844,
2010-09-28, 00:02:04,VALID,1010.94,VALID,0,VALID,103.375,VALID,0,VALID,24.2591,VALID,166,VALID,0.410156,
2010-09-28, 00:03:04,VALID,1010.91,VALID,0,VALID,103.367,VALID,0,VALID,24.2591,VALID,166,VALID,0.492578,
2010-09-28, 00:04:04,VALID,1010.9,VALID,0,VALID,103.382,VALID,0,VALID,24.2396,VALID,166,VALID,0.557813,
2010-09-28, 00:05:04,VALID,1010.9,VALID,0,VALID,103.39,VALID,0,VALID,24.2591,VALID,135,VALID,0.527344,
2010-09-28, 00:06:04,VALID,1010.9,VALID,0,VALID,103.42,VALID,0,VALID,24.2591,VALID,135,VALID,0.396875,
2010-09-28, 00:07:04,VALID,1010.91,VALID,0,VALID,103.398,VALID,0,VALID,24.2805,VALID,145,VALID,0.378906,
2010-09-28, 00:08:04,VALID,1010.92,VALID,0,VALID,103.398,VALID,0,VALID,24.3,VALID,152,VALID,0.414844,
2010-09-28, 00:09:04,VALID,1010.9,VALID,0,VALID,103.39,VALID,0,VALID,24.2591,VALID,214,VALID,0.474609,
2010-09-28, 00:10:04,VALID,1010.89,VALID,0,VALID,103.398,VALID,0,VALID,24.2786,VALID,219,VALID,0.249609,
2010-09-28, 00:11:04,VALID,1010.9,VALID,0,VALID,103.398,VALID,0,VALID,24.2786,VALID,213,VALID,0.522656,
2010-09-28, 00:12:04,VALID,1010.88,VALID,0,VALID,103.413,VALID,0,VALID,24.2591,VALID,213,VALID,0.455469,
2010-09-28, 00:13:04,VALID,1010.86,VALID,0,VALID,103.405,VALID,0,VALID,24.2591,VALID,213,VALID,0.157813,
2010-09-28, 00:14:04,VALID,1010.82,VALID,0,VALID,103.42,VALID,0,VALID,24.2805,VALID,213,VALID,0,
2010-09-28, 00:15:04,VALID,1010.84,VALID,0,VALID,103.39,VALID,0,VALID,24.2805,VALID,213,VALID,0,
2010-09-28, 00:16:04,VALID,1010.79,VALID,0,VALID,103.398,VALID,0,VALID,24.2805,VALID,213,VALID,0,
2010-09-28, 00:17:04,VALID,1010.76,VALID,0,VALID,103.413,VALID,0,VALID,24.2805,VALID,213,VALID,0,
2010-09-28, 00:18:04,VALID,1010.73,VALID,0,VALID,103.382,VALID,0,VALID,24.2786,VALID,213,VALID,0,
2010-09-28, 00:19:04,VALID,1010.7,VALID,0,VALID,103.398,VALID,0,VALID,24.2786,VALID,213,VALID,0,
2010-09-28, 00:20:04,VALID,1010.69,VALID,0,VALID,103.382,VALID,0,VALID,24.2981,VALID,213,VALID,0,
2010-09-28, 00:21:04,VALID,1010.66,VALID,0,VALID,103.405,VALID,0,VALID,24.3,VALID,213,VALID,0,
2010-09-28, 00:22:04,VALID,1010.65,VALID,0,VALID,103.413,VALID,0,VALID,24.2768,VALID,199,VALID,0.294141,
2010-09-28, 00:23:04,VALID,1010.63,VALID,0,VALID,103.398,VALID,0,VALID,24.2963,VALID,199,VALID,0,
2010-09-28, 00:24:04,VALID,1010.59,VALID,0,VALID,103.375,VALID,0,VALID,24.2749,VALID,199,VALID,0,
2010-09-28, 00:25:04,VALID,1010.58,VALID,0,VALID,103.382,VALID,0,VALID,24.3158,VALID,199,VALID,0,
2010-09-28, 00:26:04,VALID,1010.57,VALID,0,VALID,103.382,VALID,0,VALID,24.3158,VALID,199,VALID,0,
2010-09-28, 00:27:04,VALID,1010.53,VALID,0,VALID,103.375,VALID,0,VALID,24.3158,VALID,199,VALID,0,
2010-09-28, 00:28:04,VALID,1010.52,VALID,0,VALID,103.367,VALID,0,VALID,24.3158,VALID,199,VALID,0,
2010-09-28, 00:29:04,VALID,1010.53,VALID,0,VALID,103.382,VALID,0,VALID,24.3158,VALID,199,VALID,0,
2010-09-28, 00:30:04,VALID,1010.52,VALID,0,VALID,103.398,VALID,0,VALID,24.3371,VALID,199,VALID,0,
2010-09-28, 00:31:04,VALID,1010.5,VALID,0,VALID,103.375,VALID,0.105969,VALID,24.3547,VALID,199,VALID,0,
2010-09-28, 00:32:04,VALID,1010.52,VALID,0,VALID,103.382,VALID,0.105969,VALID,24.3761,VALID,199,VALID,0,
2010-09-28, 00:33:04,VALID,1010.53,VALID,0,VALID,103.375,VALID,0,VALID,24.3547,VALID,199,VALID,0,
2010-09-28, 00:34:04,VALID,1010.5,VALID,0,VALID,103.375,VALID,0.105969,VALID,24.3547,VALID,199,VALID,0,
2010-09-28, 00:35:04,VALID,1010.48,VALID,0,VALID,103.382,VALID,0,VALID,24.3547,VALID,199,VALID,0,
2010-09-28, 00:36:04,VALID,1010.48,VALID,0,VALID,103.398,VALID,0.105969,VALID,24.3956,VALID,199,VALID,0,
2010-09-28, 00:37:04,VALID,1010.47,VALID,0,VALID,103.382,VALID,0,VALID,24.3956,VALID,199,VALID,0,
2010-09-28, 00:38:04,VALID,1010.5,VALID,0,VALID,103.39,VALID,0.105969,VALID,24.4132,VALID,199,VALID,0,
2010-09-28, 00:39:04,VALID,1010.46,VALID,0,VALID,103.382,VALID,0,VALID,24.4327,VALID,199,VALID,0,
2010-09-28, 00:40:04,VALID,1010.47,VALID,0,VALID,103.382,VALID,0,VALID,24.454,VALID,199,VALID,0,
2010-09-28, 00:41:04,VALID,1010.48,VALID,0,VALID,103.375,VALID,0.105969,VALID,24.4522,VALID,199,VALID,0,
2010-09-28, 00:42:04,VALID,1010.45,VALID,0,VALID,103.39,VALID,0,VALID,24.454,VALID,199,VALID,0,
2010-09-28, 00:43:04,VALID,1010.43,VALID,0,VALID,103.375,VALID,0,VALID,24.4735,VALID,199,VALID,0,
2010-09-28, 00:44:04,VALID,1010.44,VALID,0,VALID,103.359,VALID,0.105969,VALID,24.4522,VALID,199,VALID,0,
2010-09-28, 00:45:04,VALID,1010.4,VALID,0,VALID,103.337,VALID,0,VALID,24.4522,VALID,199,VALID,0,
2010-09-28, 00:46:04,VALID,1010.41,VALID,0,VALID,103.344,VALID,0,VALID,24.4717,VALID,199,VALID,0,
2010-09-28, 00:47:04,VALID,1010.39,VALID,0,VALID,103.329,VALID,0,VALID,24.4717,VALID,199,VALID,0,
2010-09-28, 00:48:04,VALID,1010.37,VALID,0,VALID,103.329,VALID,0.105969,VALID,24.4717,VALID,200,VALID,0,
2010-09-28, 00:49:04,VALID,1010.31,VALID,0,VALID,103.291,VALID,0,VALID,24.4735,VALID,203,VALID,0,
2010-09-28, 00:50:04,VALID,1010.32,VALID,0,VALID,103.306,VALID,0,VALID,24.4735,VALID,203,VALID,0,
2010-09-28, 00:51:04,VALID,1010.32,VALID,0,VALID,103.306,VALID,0,VALID,24.4717,VALID,209,VALID,0,
2010-09-28, 00:52:04,VALID,1010.29,VALID,0,VALID,103.329,VALID,0.105969,VALID,24.4911,VALID,209,VALID,0,
2010-09-28, 00:53:04,VALID,1010.26,VALID,0,VALID,103.329,VALID,0,VALID,24.493,VALID,209,VALID,0,
2010-09-28, 00:54:04,VALID,1010.24,VALID,0,VALID,103.329,VALID,0,VALID,24.5125,VALID,209,VALID,0,
2010-09-28, 00:55:04,VALID,1010.23,VALID,0,VALID,103.329,VALID,0,VALID,24.5125,VALID,207,VALID,0,
2010-09-28, 00:56:04,VALID,1010.21,VALID,0,VALID,103.314,VALID,0,VALID,24.5106,VALID,256,VALID,0,
2010-09-28, 00:57:04,VALID,1010.21,VALID,0,VALID,103.306,VALID,0,VALID,24.532,VALID,256,VALID,0,
2010-09-28, 00:58:04,VALID,1010.19,VALID,0,VALID,103.337,VALID,0.105969,VALID,24.5515,VALID,256,VALID,0,
2010-09-28, 00:59:04,VALID,1010.17,VALID,0,VALID,103.321,VALID,0.105969,VALID,24.5301,VALID,303,VALID,0,
2010-09-28, 01:00:04,VALID,1010.14,VALID,0,VALID,103.314,VALID,0,VALID,24.571,VALID,339,VALID,0,
2010-09-28, 01:01:04,VALID,1010.16,VALID,0,VALID,103.321,VALID,0.105969,VALID,24.5905,VALID,339,VALID,0,
2010-09-28, 01:02:04,VALID,1010.14,VALID,0,VALID,103.314,VALID,0,VALID,24.6099,VALID,339,VALID,0,
2010-09-28, 01:03:04,VALID,1010.15,VALID,0,VALID,103.306,VALID,0.105969,VALID,24.5886,VALID,339,VALID,0,
2010-09-28, 01:04:04,VALID,1010.16,VALID,0,VALID,103.306,VALID,0,VALID,24.6099,VALID,339,VALID,0,
2010-09-28, 01:05:04,VALID,1010.16,VALID,0,VALID,103.314,VALID,0,VALID,24.5886,VALID,339,VALID,0,
2010-09-28, 01:06:04,VALID,1010.14,VALID,0,VALID,103.306,VALID,0.105969,VALID,24.6099,VALID,323,VALID,0,
2010-09-28, 01:07:04,VALID,1010.15,VALID,0,VALID,103.314,VALID,0.105969,VALID,24.6099,VALID,323,VALID,0,
2010-09-28, 01:08:04,VALID,1010.15,VALID,0.5,VALID,103.306,VALID,0,VALID,24.6099,VALID,323,VALID,0,
2010-09-28, 01:09:04,VALID,1010.15,VALID,0,VALID,103.337,VALID,0.105969,VALID,24.6294,VALID,270,VALID,0,
2010-09-28, 01:10:04,VALID,1010.14,VALID,0,VALID,103.329,VALID,0,VALID,24.5886,VALID,270,VALID,0,
2010-09-28, 01:11:04,VALID,1010.16,VALID,0,VALID,103.337,VALID,0.105969,VALID,24.6099,VALID,310,VALID,0.466016,
2010-09-28, 01:12:04,VALID,1010.13,VALID,0,VALID,103.337,VALID,0.105969,VALID,24.5886,VALID,310,VALID,0.568359,
2010-09-28, 01:13:04,VALID,1010.11,VALID,0,VALID,103.337,VALID,0,VALID,24.6081,VALID,310,VALID,0.653906,
2010-09-28, 01:14:04,VALID,1010.12,VALID,0,VALID,103.344,VALID,0.105969,VALID,24.5886,VALID,324,VALID,0.698828,
2010-09-28, 01:15:04,VALID,1010.13,VALID,0,VALID,103.337,VALID,0.105969,VALID,24.6294,VALID,308,VALID,0.611719,
2010-09-28, 01:16:04,VALID,1010.1,VALID,0,VALID,103.344,VALID,0.105969,VALID,24.5886,VALID,310,VALID,1.48203,
2010-09-28, 01:17:04,VALID,1010.07,VALID,0,VALID,103.321,VALID,0.105969,VALID,24.5691,VALID,298,VALID,0.545313,
2010-09-28, 01:18:04,VALID,1010.07,VALID,0,VALID,103.321,VALID,0.105969,VALID,24.5496,VALID,307,VALID,0.525391,
2010-09-28, 01:19:04,VALID,1010.09,VALID,0,VALID,103.314,VALID,0,VALID,24.5301,VALID,347,VALID,0.281641,
2010-09-28, 01:20:04,VALID,1010.07,VALID,0,VALID,103.314,VALID,0.105969,VALID,24.5301,VALID,287,VALID,0.453125,
2010-09-28, 01:21:04,VALID,1010.02,VALID,0,VALID,103.321,VALID,0.105969,VALID,24.5106,VALID,307,VALID,0.581641,
2010-09-28, 01:22:04,VALID,1010.04,VALID,0,VALID,103.314,VALID,0,VALID,24.493,VALID,316,VALID,0.0769531,
2010-09-28, 01:23:04,VALID,1010.05,VALID,0,VALID,103.298,VALID,0,VALID,24.4735,VALID,320,VALID,0.0773437,
2010-09-28, 01:24:04,VALID,1010.02,VALID,0,VALID,103.306,VALID,0,VALID,24.493,VALID,287,VALID,0.348047,
2010-09-28, 01:25:04,VALID,1009.99,VALID,0,VALID,103.306,VALID,0,VALID,24.493,VALID,290,VALID,0.416406,
2010-09-28, 01:26:04,VALID,1009.97,VALID,0,VALID,103.291,VALID,0,VALID,24.4735,VALID,294,VALID,0.417578,
2010-09-28, 01:27:04,VALID,1009.93,VALID,0,VALID,103.314,VALID,0,VALID,24.4735,VALID,288,VALID,0.416797,
2010-09-28, 01:28:04,VALID,1009.94,VALID,0,VALID,103.306,VALID,0,VALID,24.4949,VALID,309,VALID,0.295703,
2010-09-28, 01:29:04,VALID,1009.94,VALID,0,VALID,103.321,VALID,0,VALID,24.4735,VALID,317,VALID,0.573047,
2010-09-28, 01:30:04,VALID,1009.9,VALID,0,VALID,103.344,VALID,0,VALID,24.4949,VALID,314,VALID,0.250781,
2010-09-28, 01:31:04,VALID,1009.92,VALID,0,VALID,103.314,VALID,0,VALID,24.4735,VALID,316,VALID,0.421484,
2010-09-28, 01:32:04,VALID,1009.88,VALID,0,VALID,103.306,VALID,0,VALID,24.4949,VALID,333,VALID,0.319922,
2010-09-28, 01:33:04,VALID,1009.88,VALID,0,VALID,103.291,VALID,0,VALID,24.493,VALID,356,VALID,0.563281,
2010-09-28, 01:34:04,VALID,1009.86,VALID,0,VALID,103.314,VALID,0,VALID,24.4735,VALID,15,VALID,0.661328,
2010-09-28, 01:35:04,VALID,1009.82,VALID,0,VALID,103.314,VALID,0,VALID,24.4735,VALID,30,VALID,0.605469,
2010-09-28, 01:36:04,VALID,1009.82,VALID,0,VALID,103.306,VALID,0,VALID,24.454,VALID,78,VALID,0.678125,
2010-09-28, 01:37:04,VALID,1009.8,VALID,0,VALID,103.337,VALID,0,VALID,24.454,VALID,92,VALID,0.78125,
2010-09-28, 01:38:04,VALID,1009.78,VALID,0,VALID,103.321,VALID,0,VALID,24.4735,VALID,89,VALID,0.799609,
2010-09-28, 01:39:04,VALID,1009.78,VALID,0,VALID,103.359,VALID,0,VALID,24.4345,VALID,70,VALID,0.731641,
2010-09-28, 01:40:04,VALID,1009.74,VALID,0,VALID,103.352,VALID,0,VALID,24.4345,VALID,56,VALID,0.610156,
2010-09-28, 01:41:04,VALID,1009.71,VALID,0,VALID,103.321,VALID,0,VALID,24.4345,VALID,55,VALID,0.496484,
2010-09-28, 01:42:04,VALID,1009.71,VALID,0,VALID,103.329,VALID,0,VALID,24.415,VALID,56,VALID,0.545703,
2010-09-28, 01:43:04,VALID,1009.7,VALID,0,VALID,103.344,VALID,0,VALID,24.3956,VALID,23,VALID,0.727734,
2010-09-28, 01:44:04,VALID,1009.68,VALID,0,VALID,103.321,VALID,0,VALID,24.3956,VALID,11,VALID,0.2875,
2010-09-28, 01:45:04,VALID,1009.66,VALID,0,VALID,103.337,VALID,0,VALID,24.3974,VALID,36,VALID,0.282422,
2010-09-28, 01:46:04,VALID,1009.67,VALID,0,VALID,103.337,VALID,0,VALID,24.3566,VALID,27,VALID,0.417578,
2010-09-28, 01:47:04,VALID,1009.63,VALID,0,VALID,103.344,VALID,0,VALID,24.3371,VALID,27,VALID,0.00429688,
2010-09-28, 01:48:04,VALID,1009.6,VALID,0,VALID,103.359,VALID,0,VALID,24.3389,VALID,16,VALID,0.0628906,
2010-09-28, 01:49:04,VALID,1009.64,VALID,0,VALID,103.359,VALID,0,VALID,24.3176,VALID,339,VALID,0.247656,
2010-09-28, 01:50:04,VALID,1009.6,VALID,0,VALID,103.352,VALID,0,VALID,24.3176,VALID,272,VALID,0.183594,
2010-09-28, 01:51:04,VALID,1009.57,VALID,0,VALID,103.375,VALID,0,VALID,24.2981,VALID,271,VALID,0.090625,
2010-09-28, 01:52:04,VALID,1009.56,VALID,0,VALID,103.367,VALID,0,VALID,24.3194,VALID,271,VALID,0,
2010-09-28, 01:53:04,VALID,1009.54,VALID,0,VALID,103.359,VALID,0,VALID,24.2981,VALID,252,VALID,0.292578,
2010-09-28, 01:54:04,VALID,1009.49,VALID,0,VALID,103.382,VALID,0,VALID,24.3194,VALID,225,VALID,0,
2010-09-28, 01:55:04,VALID,1009.5,VALID,0,VALID,103.375,VALID,0,VALID,24.2981,VALID,207,VALID,0.339844,
2010-09-28, 01:56:04,VALID,1009.49,VALID,0,VALID,103.367,VALID,0,VALID,24.2981,VALID,207,VALID,0.291406,
2010-09-28, 01:57:04,VALID,1009.49,VALID,0,VALID,103.398,VALID,0,VALID,24.2981,VALID,207,VALID,0.258594,
2010-09-28, 01:58:04,VALID,1009.5,VALID,0,VALID,103.39,VALID,0,VALID,24.3176,VALID,207,VALID,0,
2010-09-28, 01:59:04,VALID,1009.47,VALID,0,VALID,103.39,VALID,0,VALID,24.2981,VALID,207,VALID,0,
2010-09-28, 02:00:04,VALID,1009.47,VALID,0,VALID,103.375,VALID,0,VALID,24.2981,VALID,207,VALID,0,
2010-09-28, 02:01:04,VALID,1009.46,VALID,0,VALID,103.375,VALID,0,VALID,24.3176,VALID,207,VALID,0,
2010-09-28, 02:02:04,VALID,1009.43,VALID,0,VALID,103.359,VALID,0,VALID,24.3176,VALID,207,VALID,0,
2010-09-28, 02:03:04,VALID,1009.4,VALID,0,VALID,103.367,VALID,0,VALID,24.3371,VALID,207,VALID,0,
2010-09-28, 02:04:04,VALID,1009.39,VALID,0,VALID,103.367,VALID,0,VALID,24.3371,VALID,207,VALID,0,
2010-09-28, 02:05:04,VALID,1009.34,VALID,0,VALID,103.352,VALID,0,VALID,24.3371,VALID,207,VALID,0,
2010-09-28, 02:06:04,VALID,1009.33,VALID,0,VALID,103.329,VALID,0,VALID,24.3371,VALID,207,VALID,0,
2010-09-28, 02:07:04,VALID,1009.3,VALID,0,VALID,103.337,VALID,0,VALID,24.3566,VALID,207,VALID,0,
2010-09-28, 02:08:04,VALID,1009.31,VALID,0,VALID,103.352,VALID,0,VALID,24.3566,VALID,207,VALID,0,
2010-09-28, 02:09:04,VALID,1009.27,VALID,0,VALID,103.337,VALID,0,VALID,24.3566,VALID,207,VALID,0,
2010-09-28, 02:10:04,VALID,1009.25,VALID,0,VALID,103.337,VALID,0,VALID,24.3566,VALID,207,VALID,0,
2010-09-28, 02:11:04,VALID,1009.25,VALID,0,VALID,103.314,VALID,0,VALID,24.3566,VALID,207,VALID,0,
2010-09-28, 02:12:04,VALID,1009.23,VALID,0,VALID,103.329,VALID,0,VALID,24.3566,VALID,207,VALID,0,
2010-09-28, 02:13:04,VALID,1009.18,VALID,0,VALID,103.344,VALID,0,VALID,24.3566,VALID,207,VALID,0,
2010-09-28, 02:14:04,VALID,1009.16,VALID,0,VALID,103.352,VALID,0,VALID,24.3566,VALID,207,VALID,0,
2010-09-28, 02:15:04,VALID,1009.13,VALID,0,VALID,103.321,VALID,0,VALID,24.3779,VALID,206,VALID,0,
2010-09-28, 02:16:04,VALID,1009.12,VALID,0,VALID,103.314,VALID,0,VALID,24.3761,VALID,206,VALID,0.107031,
2010-09-28, 02:17:04,VALID,1009.12,VALID,0,VALID,103.314,VALID,0,VALID,24.3761,VALID,207,VALID,0.0105469,
2010-09-28, 02:18:04,VALID,1009.14,VALID,0,VALID,103.344,VALID,0,VALID,24.3974,VALID,207,VALID,0,
2010-09-28, 02:19:04,VALID,1009.11,VALID,0,VALID,103.321,VALID,0,VALID,24.3974,VALID,207,VALID,0,
2010-09-28, 02:20:04,VALID,1009.09,VALID,0,VALID,103.321,VALID,0,VALID,24.3974,VALID,207,VALID,0,
2010-09-28, 02:21:04,VALID,1009.09,VALID,0,VALID,103.352,VALID,0,VALID,24.3956,VALID,207,VALID,0,
2010-09-28, 02:22:04,VALID,1009.07,VALID,0,VALID,103.298,VALID,0.105969,VALID,24.3937,VALID,207,VALID,0,
2010-09-28, 02:23:04,VALID,1009.07,VALID,0,VALID,103.314,VALID,0,VALID,24.415,VALID,207,VALID,0,
2010-09-28, 02:24:04,VALID,1009.06,VALID,0,VALID,103.314,VALID,0,VALID,24.3937,VALID,206,VALID,0,
2010-09-28, 02:25:04,VALID,1009.03,VALID,0,VALID,103.314,VALID,0.105969,VALID,24.3937,VALID,206,VALID,0,
2010-09-28, 02:26:04,VALID,1009.05,VALID,0,VALID,103.314,VALID,0.105969,VALID,24.3937,VALID,206,VALID,0,
2010-09-28, 02:27:04,VALID,1009.05,VALID,0,VALID,103.298,VALID,0.105969,VALID,24.4132,VALID,206,VALID,0,
2010-09-28, 02:28:04,VALID,1009.04,VALID,0,VALID,103.321,VALID,0,VALID,24.4132,VALID,207,VALID,0,
2010-09-28, 02:29:04,VALID,1009.04,VALID,0,VALID,103.314,VALID,0.105969,VALID,24.4132,VALID,206,VALID,0,
2010-09-28, 02:30:04,VALID,1009.02,VALID,0,VALID,103.291,VALID,0.105969,VALID,24.4132,VALID,207,VALID,0,
2010-09-28, 02:31:04,VALID,1009,VALID,0,VALID,103.298,VALID,0.105969,VALID,24.4132,VALID,207,VALID,0,
2010-09-28, 02:32:04,VALID,1009.01,VALID,0,VALID,103.298,VALID,0.105969,VALID,24.454,VALID,207,VALID,0,
2010-09-28, 02:33:04,VALID,1008.96,VALID,0,VALID,103.283,VALID,0.105969,VALID,24.4327,VALID,207,VALID,0,
2010-09-28, 02:34:04,VALID,1008.97,VALID,0,VALID,103.298,VALID,0,VALID,24.4327,VALID,207,VALID,0,
2010-09-28, 02:35:04,VALID,1008.95,VALID,0,VALID,103.298,VALID,0.105969,VALID,24.4327,VALID,206,VALID,0,
2010-09-28, 02:36:04,VALID,1008.91,VALID,0,VALID,103.276,VALID,0.105969,VALID,24.454,VALID,207,VALID,0,
2010-09-28, 02:37:04,VALID,1008.91,VALID,0,VALID,103.253,VALID,0.105969,VALID,24.4735,VALID,206,VALID,0,
2010-09-28, 02:38:04,VALID,1008.92,VALID,0,VALID,103.276,VALID,0.105969,VALID,24.4522,VALID,207,VALID,0,
2010-09-28, 02:39:04,VALID,1008.91,VALID,0,VALID,103.283,VALID,0.105969,VALID,24.4717,VALID,207,VALID,0,
2010-09-28, 02:40:04,VALID,1008.87,VALID,0,VALID,103.253,VALID,0.105969,VALID,24.4717,VALID,207,VALID,0,
2010-09-28, 02:41:04,VALID,1008.88,VALID,0,VALID,103.245,VALID,0.105969,VALID,24.4717,VALID,207,VALID,0,
2010-09-28, 02:42:04,VALID,1008.86,VALID,0,VALID,103.253,VALID,0.105969,VALID,24.4717,VALID,207,VALID,0,
2010-09-28, 02:43:04,VALID,1008.85,VALID,0,VALID,103.253,VALID,0,VALID,24.4522,VALID,207,VALID,0,
2010-09-28, 02:44:04,VALID,1008.82,VALID,0,VALID,103.253,VALID,0.105969,VALID,24.4717,VALID,207,VALID,0,
2010-09-28, 02:45:04,VALID,1008.81,VALID,0,VALID,103.283,VALID,0.105969,VALID,24.4522,VALID,207,VALID,0,
2010-09-28, 02:46:04,VALID,1008.81,VALID,0,VALID,103.298,VALID,0.105969,VALID,24.4522,VALID,207,VALID,0,
2010-09-28, 02:47:04,VALID,1008.81,VALID,0,VALID,103.291,VALID,0.105969,VALID,24.4327,VALID,207,VALID,0,
2010-09-28, 02:48:04,VALID,1008.81,VALID,0,VALID,103.276,VALID,0.105969,VALID,24.4522,VALID,207,VALID,0,
2010-09-28, 02:49:04,VALID,1008.79,VALID,0,VALID,103.276,VALID,0.105969,VALID,24.4327,VALID,207,VALID,0,
2010-09-28, 02:50:04,VALID,1008.78,VALID,0,VALID,103.291,VALID,0,VALID,24.4327,VALID,207,VALID,0,
2010-09-28, 02:51:05,VALID,1008.8,VALID,0,VALID,103.283,VALID,0,VALID,24.454,VALID,207,VALID,0,
2010-09-28, 02:52:05,VALID,1008.78,VALID,0,VALID,103.268,VALID,0.105969,VALID,24.4327,VALID,207,VALID,0,
2010-09-28, 02:53:05,VALID,1008.77,VALID,0,VALID,103.283,VALID,0.105969,VALID,24.4327,VALID,207,VALID,0,
2010-09-28, 02:54:05,VALID,1008.71,VALID,0,VALID,103.268,VALID,0.105969,VALID,24.4132,VALID,207,VALID,0,
2010-09-28, 02:55:05,VALID,1008.7,VALID,0,VALID,103.26,VALID,0.105969,VALID,24.4132,VALID,207,VALID,0,
2010-09-28, 02:56:05,VALID,1008.67,VALID,0,VALID,103.276,VALID,0.105969,VALID,24.3937,VALID,207,VALID,0,
2010-09-28, 02:57:05,VALID,1008.64,VALID,0,VALID,103.268,VALID,0,VALID,24.4345,VALID,207,VALID,0,
2010-09-28, 02:58:05,VALID,1008.62,VALID,0,VALID,103.26,VALID,0.105969,VALID,24.3937,VALID,207,VALID,0,
2010-09-28, 02:59:05,VALID,1008.6,VALID,0,VALID,103.291,VALID,0,VALID,24.3742,VALID,207,VALID,0,
2010-09-28, 03:00:05,VALID,1008.57,VALID,0,VALID,103.291,VALID,0.105969,VALID,24.3742,VALID,207,VALID,0,
2010-09-28, 03:01:05,VALID,1008.57,VALID,0,VALID,103.276,VALID,0.105969,VALID,24.3761,VALID,207,VALID,0,
2010-09-28, 03:02:05,VALID,1008.53,VALID,0,VALID,103.253,VALID,0.105969,VALID,24.3547,VALID,207,VALID,0,
2010-09-28, 03:03:05,VALID,1008.54,VALID,0,VALID,103.245,VALID,0.105969,VALID,24.3547,VALID,207,VALID,0,
2010-09-28, 03:04:05,VALID,1008.52,VALID,0,VALID,103.276,VALID,0.105969,VALID,24.3352,VALID,207,VALID,0,
2010-09-28, 03:05:05,VALID,1008.5,VALID,0,VALID,103.283,VALID,0,VALID,24.3158,VALID,207,VALID,0,
2010-09-28, 03:06:05,VALID,1008.49,VALID,0,VALID,103.276,VALID,0.105969,VALID,24.3352,VALID,207,VALID,0,
2010-09-28, 03:07:05,VALID,1008.47,VALID,0,VALID,103.268,VALID,0.105969,VALID,24.3158,VALID,207,VALID,0,
2010-09-28, 03:08:05,VALID,1008.48,VALID,0,VALID,103.276,VALID,0.105969,VALID,24.3158,VALID,207,VALID,0,
2010-09-28, 03:09:05,VALID,1008.48,VALID,0,VALID,103.291,VALID,0.105969,VALID,24.2963,VALID,207,VALID,0,
2010-09-28, 03:10:05,VALID,1008.44,VALID,0,VALID,103.283,VALID,0.105969,VALID,24.2981,VALID,207,VALID,0,
2010-09-28, 03:11:05,VALID,1008.44,VALID,0,VALID,103.298,VALID,0.105969,VALID,24.2963,VALID,207,VALID,0,
2010-09-28, 03:12:05,VALID,1008.44,VALID,0,VALID,103.306,VALID,0.105969,VALID,24.2768,VALID,207,VALID,0,
2010-09-28, 03:13:05,VALID,1008.45,VALID,0,VALID,103.314,VALID,0.105969,VALID,24.2573,VALID,207,VALID,0,
2010-09-28, 03:14:05,VALID,1008.47,VALID,0,VALID,103.314,VALID,0.105969,VALID,24.2573,VALID,207,VALID,0,
2010-09-28, 03:15:05,VALID,1008.45,VALID,0,VALID,103.321,VALID,0.105969,VALID,24.2573,VALID,207,VALID,0,
2010-09-28, 03:16:05,VALID,1008.44,VALID,0,VALID,103.329,VALID,0.105969,VALID,24.2378,VALID,207,VALID,0,
2010-09-28, 03:17:05,VALID,1008.45,VALID,0,VALID,103.321,VALID,0.105969,VALID,24.2591,VALID,207,VALID,0,
2010-09-28, 03:18:05,VALID,1008.47,VALID,0,VALID,103.314,VALID,0,VALID,24.2183,VALID,207,VALID,0,
2010-09-28, 03:19:05,VALID,1008.42,VALID,0,VALID,103.337,VALID,0.105969,VALID,24.2378,VALID,207,VALID,0,
2010-09-28, 03:20:05,VALID,1008.44,VALID,0,VALID,103.321,VALID,0.105969,VALID,24.2183,VALID,207,VALID,0,
2010-09-28, 03:21:05,VALID,1008.4,VALID,0,VALID,103.306,VALID,0.105969,VALID,24.2183,VALID,207,VALID,0,
2010-09-28, 03:22:05,VALID,1008.4,VALID,0,VALID,103.314,VALID,0,VALID,24.2183,VALID,207,VALID,0,
2010-09-28, 03:23:05,VALID,1008.4,VALID,0,VALID,103.314,VALID,0,VALID,24.2202,VALID,207,VALID,0,
2010-09-28, 03:24:05,VALID,1008.41,VALID,0,VALID,103.314,VALID,0.105969,VALID,24.1988,VALID,207,VALID,0,
2010-09-28, 03:25:05,VALID,1008.4,VALID,0,VALID,103.306,VALID,0.105969,VALID,24.1988,VALID,207,VALID,0,
2010-09-28, 03:26:05,VALID,1008.43,VALID,0,VALID,103.306,VALID,0.105969,VALID,24.1988,VALID,207,VALID,0,
2010-09-28, 03:27:05,VALID,1008.43,VALID,0,VALID,103.298,VALID,0,VALID,24.1988,VALID,207,VALID,0,
2010-09-28, 03:28:05,VALID,1008.47,VALID,0,VALID,103.276,VALID,0.105969,VALID,24.1988,VALID,207,VALID,0,
2010-09-28, 03:29:05,VALID,1008.45,VALID,0,VALID,103.283,VALID,0.105969,VALID,24.1988,VALID,207,VALID,0,
2010-09-28, 03:30:05,VALID,1008.45,VALID,0,VALID,103.268,VALID,0.105969,VALID,24.1988,VALID,207,VALID,0,
2010-09-28, 03:31:05,VALID,1008.46,VALID,0,VALID,103.26,VALID,0.105969,VALID,24.1988,VALID,207,VALID,0,
2010-09-28, 03:32:05,VALID,1008.44,VALID,0,VALID,103.291,VALID,0.105969,VALID,24.1793,VALID,207,VALID,0,
2010-09-28, 03:33:05,VALID,1008.42,VALID,0,VALID,103.298,VALID,0.105969,VALID,24.158,VALID,207,VALID,0,
2010-09-28, 03:34:05,VALID,1008.42,VALID,0,VALID,103.268,VALID,0.105969,VALID,24.1793,VALID,207,VALID,0,
2010-09-28, 03:35:05,VALID,1008.43,VALID,0,VALID,103.298,VALID,0.105969,VALID,24.2007,VALID,207,VALID,0,
2010-09-28, 03:36:05,VALID,1008.42,VALID,0,VALID,103.276,VALID,0.105969,VALID,24.1599,VALID,207,VALID,0,
2010-09-28, 03:37:05,VALID,1008.39,VALID,0,VALID,103.291,VALID,0,VALID,24.183,VALID,207,VALID,0,
2010-09-28, 03:38:05,VALID,1008.39,VALID,0,VALID,103.276,VALID,0,VALID,24.1617,VALID,207,VALID,0,
2010-09-28, 03:39:05,VALID,1008.4,VALID,0,VALID,103.276,VALID,0,VALID,24.1422,VALID,207,VALID,0,
2010-09-28, 03:40:05,VALID,1008.38,VALID,0,VALID,103.276,VALID,0,VALID,24.183,VALID,207,VALID,0,
2010-09-28, 03:41:05,VALID,1008.35,VALID,0,VALID,103.283,VALID,0,VALID,24.1227,VALID,207,VALID,0,
2010-09-28, 03:42:05,VALID,1008.35,VALID,0,VALID,103.306,VALID,0,VALID,24.1227,VALID,207,VALID,0,
2010-09-28, 03:43:05,VALID,1008.36,VALID,0,VALID,103.283,VALID,0,VALID,24.1032,VALID,207,VALID,0,
2010-09-28, 03:44:05,VALID,1008.35,VALID,0,VALID,103.283,VALID,0,VALID,24.0837,VALID,207,VALID,0,
2010-09-28, 03:45:05,VALID,1008.34,VALID,0,VALID,103.298,VALID,0,VALID,24.0837,VALID,207,VALID,0,
2010-09-28, 03:46:05,VALID,1008.32,VALID,0,VALID,103.306,VALID,0,VALID,24.0643,VALID,207,VALID,0,
2010-09-28, 03:47:05,VALID,1008.35,VALID,0,VALID,103.321,VALID,0,VALID,24.0448,VALID,207,VALID,0,
2010-09-28, 03:48:05,VALID,1008.33,VALID,0,VALID,103.298,VALID,0,VALID,24.0448,VALID,207,VALID,0,
2010-09-28, 03:49:05,VALID,1008.35,VALID,0,VALID,103.291,VALID,0,VALID,24.0448,VALID,207,VALID,0,